This is the latest recevied weather packets stored in our database for station/object HS9UAC-10. If no packets are shown the sender has not sent any weather packets the latest 10 day(s).
| Time | Temp. | Humidity | Pressure | Rain* | Wind** | Luminosity | Snow |
|---|---|---|---|---|---|---|---|
| 1777907380 | 36.67° C | 63% | 1008 hPa | - | - | 0 W/m² | - |
| 1777906455 | 36.67° C | 63% | 1008 hPa | - | - | 0 W/m² | - |
| 1777905531 | 36.67° C | 62% | 1008 hPa | - | - | 0 W/m² | - |
| 1777904606 | 37.22° C | 61% | 1008 hPa | - | - | 0 W/m² | - |
| 1777903681 | 37.22° C | 61% | 1008 hPa | - | - | 0 W/m² | - |
| 1777902606 | 36.67° C | 62% | 1008 hPa | - | - | 0 W/m² | - |
| 1777901675 | 36.11° C | 63% | 1007 hPa | - | - | 0 W/m² | - |
| 1777901081 | 36.67° C | 63% | 1007 hPa | - | - | 0 W/m² | - |
| 1777900090 | 36.67° C | 63% | 1007 hPa | - | - | 0 W/m² | - |
| 1777898880 | 36.11° C | 67% | 1007 hPa | - | - | 0 W/m² | - |
| 1777897960 | 36.67° C | 67% | 1006 hPa | - | - | 0 W/m² | - |
| 1777897230 | 35.56° C | 70% | 1006 hPa | - | - | 0 W/m² | - |
| 1777896030 | 36.11° C | 67% | 1006 hPa | - | - | 0 W/m² | - |
| 1777895109 | 36.67° C | 63% | 1006 hPa | - | - | 0 W/m² | - |
| 1777894123 | 36.67° C | 62% | 1006 hPa | - | - | 0 W/m² | - |
| 1777893203 | 37.22° C | 60% | 1006 hPa | - | - | 0 W/m² | - |
| 1777892365 | 37.22° C | 60% | 1005 hPa | - | - | 0 W/m² | - |
| 1777891523 | 37.22° C | 63% | 1005 hPa | - | - | 0 W/m² | - |
| 1777889575 | 36.67° C | 64% | 1005 hPa | - | - | 0 W/m² | - |
| 1777888552 | 38.33° C | 56% | 1006 hPa | - | - | 0 W/m² | - |
| 1777887626 | 38.89° C | 54% | 1005 hPa | - | - | 0 W/m² | - |
| 1777886708 | 38.33° C | 56% | 1005 hPa | - | - | 0 W/m² | - |
| 1777885729 | 40° C | 49% | 1005 hPa | - | - | 0 W/m² | - |
| 1777884869 | 40.56° C | 49% | 1005 hPa | - | - | 0 W/m² | - |
| 1777883857 | 41.11° C | 46% | 1005 hPa | - | - | 0 W/m² | - |
* Rain since midnight (hover to see other rain measurements)
** Current wind speed in m/s (hover to see current wind gust speed)